Location: Dilsberg
(49.3983°N, 8.8354°E)
Time: 06:54:26
(UTC+00:00)

Lacrosse 4 Rocket - Pass Details

Date: 19 May 2025
Orbit: 513 x 576 km, 68.0° (Epoch: 22 June)

Event Time Altitude Azimuth Distance (km) Brightness Sun altitude
Rises 20:17:21 0° 251° (WSW) 2,639 5.1 -9.6°
Reaches altitude 10° 20:19:53 10° 267° (W) 1,764 4.5 -9.8°
Maximum altitude 20:22:59 22° 319° (NW) 1,202 4.2 -10.2°
Drops below altitude 10° 20:26:08 10° 11° (NNE) 1,798 4.5 -10.5°
Sets 20:28:45 0° 28° (NNE) 2,707 5.2 -10.8°
